Location: Mannheim
(49.4880°N, 8.4650°E)
Time: 22:17:52
(UTC+02:00)

ISS - Pass Details

Date: 12 October 2018
Orbit: 403 x 408 km, 51.6° (Epoch: 17 October)

Event Time Altitude Azimuth Distance (km) Brightness Sun altitude
Rises 19:10:17 0° 287° (WNW) 2,339 1.5 -5.4°
Reaches altitude 10° 19:12:35 10° 274° (W) 1,474 0.8 -5.7°
Maximum altitude 19:15:23 26° 216° (SW) 849 -1.7 -6.2°
Drops below altitude 10° 19:18:11 10° 158° (SSE) 1,466 -1.2 -6.7°
Sets 19:20:27 0° 145° (SE) 2,322 -0.3 -7.0°
